Stations météo

réclame
Mon MeteoGroup
Lyon/Bron, France (7480): Température de l'air & dewpoint: 27.05.2020 06:00:00 - 02.06.2020 06:00:00 (CEST)Lyon/Bron, France (7480): Température de l'air 5cm: 27.05.2020 06:00:00 - 02.06.2020 06:00:00 (CEST)Lyon/Bron, France (7480): Température de l'air -20cm: 27.05.2020 06:00:00 - 02.06.2020 06:00:00 (CEST)Lyon/Bron, France (7480): Vitesse du vent & gusts: 27.05.2020 06:00:00 - 02.06.2020 06:00:00 (CEST)Lyon/Bron, France (7480): Direction du vent: 27.05.2020 06:00:00 - 02.06.2020 06:00:00 (CEST)Lyon/Bron, France (7480): reduced air pressure: 27.05.2020 06:00:00 - 02.06.2020 06:00:00 (CEST)Lyon/Bron, France (7480): visibility: 27.05.2020 06:00:00 - 02.06.2020 06:00:00 (CEST)Lyon/Bron, France (7480): Ensoleillement: 27.05.2020 06:00:00 - 02.06.2020 06:00:00 (CEST)Lyon/Bron, France (7480): Quantités de précipitations: 27.05.2020 06:00:00 - 02.06.2020 06:00:00 (CEST)
Date & Time tt [°C] td [°C] tt 5cm [°C] tt -20cm [°C] ff [km/h] ff [knt] fx [km/h] fx [knt] dd ppp [hPa] vv [km] sd [min] rr [mm]
02.06.2020 06:00:00 16,6 12,9 15,2 22,9 8 4 14 8 ESE 1016,5 60 0 0,0
02.06.2020 05:00:00 17,2 12,9 15,4 23,0 6 3 9 5 E 1016,2 60 0 0,0
02.06.2020 04:00:00 17,8 13,3 16,2 23,2 5 3 8 4 NE 1016,4 60 0 0,0
02.06.2020 03:00:00 17,5 13,0 16,4 23,3 5 3 17 9 SSW 1016,9 59 0 0,0
02.06.2020 02:00:00 18,3 13,4 17,2 23,4 11 6 21 11 E 1017,6 59 0 0,0
02.06.2020 01:00:00 19,8 12,1 18,0 23,6 6 3 20 11 E 1017,1 60 0 0,0
02.06.2020 00:00:00 21,2 11,8 19,9 23,7 14 8 24 13 SE 1016,8 60 0 0,0
01.06.2020 23:00:00 22,4 12,1 20,8 23,7 16 9 30 16 S 1016,1 60 0 0,0
01.06.2020 22:00:00 22,0 13,1 21,0 23,7 16 9 34 18 S 1015,5 56 0 0,0
01.06.2020 21:00:00 24,3 10,9 23,0 23,6 8 4 14 7 SSE 1014,9 20 0 0,0
01.06.2020 20:00:00 25,0 9,7 24,9 23,5 9 5 23 12 SSE 1014,7 60 0 0,0
01.06.2020 19:00:00 26,0 8,5 26,8 23,2 13 7 26 14 SSE 1014,4 18 13 0,0
01.06.2020 18:00:00 27,2 7,6 30,9 23,0 12 6 26 14 SE 1014,2 31 36 0,0
01.06.2020 17:00:00 27,4 9,7 32,8 22,7 15 8 27 14 S 1014,3 33 47 0,0
01.06.2020 16:00:00 26,9 11,0 31,7 22,4 9 5 29 15 S 1014,5 38 21 0,0
01.06.2020 15:00:00 26,8 12,4 30,1 22,1 10 6 29 16 S 1014,8 46 34 0,0
01.06.2020 14:00:00 27,1 12,3 34,2 21,7 11 6 24 13 SE 1015,0 19 60 0,0
01.06.2020 13:00:00 25,8 12,6 34,4 21,6 11 6 28 15 S 1015,5 49 60 0,0
01.06.2020 12:00:00 24,8 13,0 33,3 21,6 10 5 20 11 S 1015,8 20 60 0,0
01.06.2020 11:00:00 22,4 12,3 28,6 21,6 9 5 19 11 SSE 1016,0 60 60 0,0
01.06.2020 10:00:00 20,7 12,7 25,9 21,7 10 6 20 11 S 1016,5 60 60 0,0
01.06.2020 09:00:00 18,9 12,2 20,7 21,9 10 6 16 9 S 1016,6 60 60 0,0
01.06.2020 08:00:00 17,0 11,5 13,9 22,1 4 2 9 5 S 1016,4 47 60 0,0
01.06.2020 07:00:00 15,1 10,9 10,6 22,3 4 2 6 3 WSW 1016,3 30 14 0,0
01.06.2020 06:00:00 14,1 11,4 9,3 22,5 4 2 12 7 E 1016,3 37 0 0,0
01.06.2020 05:00:00 14,5 11,1 10,1 22,7 5 3 9 5 S 1015,8 48 0 0,0
01.06.2020 04:00:00 14,9 9,7 9,5 22,9 5 3 9 5 SE 1015,8 59 0 0,0
01.06.2020 03:00:00 14,8 9,6 9,9 23,1 2 1 13 7 SSE 1015,7 57 0 0,0
01.06.2020 02:00:00 16,1 9,5 10,8 23,3 3 1 14 8 SSE 1015,5 59 0 0,0
01.06.2020 01:00:00 16,3 9,7 11,1 23,4 6 4 11 6 SSE 1015,3 59 0 0,0
01.06.2020 00:00:00 17,7 9,3 12,2 23,5 2 1 7 4 S 1015,0 20 0 0,0
31.05.2020 23:00:00 19,0 8,6 13,4 23,6 5 3 13 7 N 1014,8 60 0 0,0
31.05.2020 22:00:00 20,7 9,3 17,0 23,5 9 5 16 9 N 1014,1 60 0 0,0
31.05.2020 21:00:00 22,9 9,3 21,3 23,4 13 7 22 12 N 1013,4 60 22 0,0
31.05.2020 20:00:00 24,4 9,5 27,7 23,2 15 8 24 13 N 1013,1 57 60 0,0
31.05.2020 19:00:00 25,3 10,3 32,0 22,9 16 9 26 14 N 1012,7 40 57 0,0
31.05.2020 18:00:00 26,1 10,3 30,4 22,6 12 7 22 12 NNW 1013,0 34 53 0,0
31.05.2020 17:00:00 26,0 10,6 35,5 22,2 8 4 26 14 S 1013,2 19 57 0,0
31.05.2020 16:00:00 25,7 9,9 36,7 21,8 9 5 25 13 N 1013,6 48 58 0,0
31.05.2020 15:00:00 25,0 9,7 38,0 21,5 6 4 21 12 WNW 1014,1 51 60 0,0
31.05.2020 14:00:00 24,1 9,7 35,2 21,3 9 5 23 13 NW 1014,4 54 60 0,0
31.05.2020 13:00:00 22,5 8,6 34,0 21,2 8 4 21 11 NW 1014,7 56 60 0,0
31.05.2020 12:00:00 21,4 8,3 31,3 21,1 5 3 15 8 WNW 1015,2 60 60 0,0
31.05.2020 11:00:00 19,9 7,9 28,6 21,2 6 3 12 7 WNW 1015,5 60 60 0,0
31.05.2020 10:00:00 18,3 7,4 25,0 21,3 6 3 14 8 W 1016,0 35 60 0,0
31.05.2020 09:00:00 16,9 7,3 20,4 21,5 4 2 10 5 W 1016,3 50 60 0,0
31.05.2020 08:00:00 15,9 7,4 11,4 21,7 6 3 10 5 NNW 1016,1 60 60 0,0
31.05.2020 07:00:00 13,0 6,8 8,6 21,9 3 1 6 3 NW 1016,1 50 5 0,0
31.05.2020 06:00:00 13,2 6,5 8,9 22,1 5 3 11 6 N 1015,8 60 0 0,0
31.05.2020 05:00:00 14,2 7,0 9,8 22,3 5 3 10 5 N 1015,5 60 0 0,0
31.05.2020 04:00:00 14,7 7,0 8,8 22,5 6 4 12 7 N 1015,5 60 0 0,0
31.05.2020 03:00:00 14,0 8,4 8,7 22,7 2 1 8 5 S 1015,6 51 0 0,0
31.05.2020 02:00:00 14,8 8,1 9,3 22,9 3 2 8 4 W 1015,5 60 0 0,0
31.05.2020 01:00:00 17,2 8,1 11,6 23,0 3 2 15 8 WSW 1015,3 60 0 0,0
31.05.2020 00:00:00 18,9 8,2 15,1 23,1 9 5 15 8 NNW 1015,0 60 0 0,0
30.05.2020 23:00:00 19,8 9,7 16,4 23,2 9 5 17 9 N 1014,7 60 0 0,0
30.05.2020 22:00:00 20,6 10,4 17,5 23,1 8 4 18 10 NNW 1014,4 60 0 0,0
30.05.2020 21:00:00 22,4 5,8 20,2 23,1 9 5 24 13 N 1013,9 60 32 0,0
30.05.2020 20:00:00 23,6 6,4 27,4 22,8 15 8 24 13 N 1013,8 28 60 0,0
30.05.2020 19:00:00 24,5 8,4 33,0 22,5 14 8 24 13 N 1013,6 48 60 0,0
30.05.2020 18:00:00 24,5 8,0 34,9 22,2 8 4 27 15 N 1014,0 59 60 0,0
30.05.2020 17:00:00 24,8 7,4 34,9 21,8 11 6 32 17 NW 1014,3 60 60 0,0
30.05.2020 16:00:00 24,9 7,1 33,6 21,5 11 6 26 14 WNW 1014,6 56 60 0,0
30.05.2020 15:00:00 24,2 7,8 33,5 21,1 11 6 39 21 NNE 1015,0 56 60 0,0
30.05.2020 14:00:00 23,4 6,6 35,2 20,9 9 5 23 12 N 1015,6 50 60 0,0
30.05.2020 13:00:00 22,6 7,9 33,6 20,8 9 5 17 9 N 1016,0 17 60 0,0
30.05.2020 12:00:00 21,7 7,1 30,9 20,7 6 3 15 8 N 1016,6 34 60 0,0
30.05.2020 11:00:00 20,0 7,7 28,5 20,8 5 3 12 6 NNE 1017,2 29 60 0,0
30.05.2020 10:00:00 18,1 8,1 25,0 20,9 6 3 11 6 NNW 1017,7 52 60 0,0
30.05.2020 09:00:00 17,1 7,4 19,3 21,1 4 2 16 9 NW 1018,0 60 60 0,0
30.05.2020 08:00:00 15,3 6,8 9,3 21,3 4 2 8 5 N 1018,1 32 60 0,0
30.05.2020 07:00:00 11,6 7,3 5,7 21,5 3 2 6 3 SSE 1018,3 53 19 0,0
30.05.2020 06:00:00 10,7 7,0 5,7 21,8 4 2 5 3 S 1018,2 59 0 0,0
30.05.2020 05:00:00 11,6 6,9 6,3 22,0 3 2 8 4 WSW 1018,1 60 0 0,0
30.05.2020 04:00:00 11,9 7,4 6,8 22,2 6 3 9 5 WSW 1018,2 60 0 0,0
30.05.2020 03:00:00 13,0 7,7 7,6 22,4 0 0 8 4 N 1018,1 60 0 0,0
30.05.2020 02:00:00 14,3 7,1 8,7 22,5 5 3 13 7 NW 1017,9 60 0 0,0
30.05.2020 01:00:00 16,5 6,9 11,0 22,7 5 3 17 9 NNW 1017,6 58 0 0,0
30.05.2020 00:00:00 17,8 6,9 12,7 22,8 13 7 25 14 NNW 1017,2 60 0 0,0
29.05.2020 23:00:00 19,8 6,9 17,0 22,9 14 8 29 15 NNW 1017,0 60 0 0,0
29.05.2020 22:00:00 20,4 6,7 17,4 22,9 14 8 27 14 NW 1016,7 60 0 0,0
29.05.2020 21:00:00 22,2 5,6 19,8 22,8 16 9 29 16 NNW 1016,4 51 31 0,0
29.05.2020 20:00:00 23,9 6,2 26,1 22,6 21 11 35 19 NNW 1016,2 25 60 0,0
29.05.2020 19:00:00 24,6 6,8 29,4 22,3 23 12 38 21 NNW 1015,8 24 60 0,0
29.05.2020 18:00:00 25,0 5,7 33,2 22,0 23 12 38 21 NNW 1015,6 25 60 0,0
29.05.2020 17:00:00 25,3 6,0 33,8 21,7 19 10 35 19 N 1015,8 24 60 0,0
29.05.2020 16:00:00 24,7 6,0 34,3 21,3 15 8 34 18 NNW 1016,2 27 60 0,0
29.05.2020 15:00:00 23,9 5,7 33,3 21,0 14 8 38 21 NNW 1016,7 26 60 0,0
29.05.2020 14:00:00 23,6 7,2 33,4 20,8 17 9 34 19 N 1017,5 23 60 0,0
29.05.2020 13:00:00 22,3 7,3 32,0 20,6 14 7 34 18 NNW 1017,8 24 60 0,0
29.05.2020 12:00:00 20,9 8,2 28,6 20,6 13 7 28 15 N 1018,6 24 60 0,0
29.05.2020 11:00:00 19,6 8,3 26,0 20,7 13 7 26 14 NNW 1019,1 24 60 0,0
29.05.2020 10:00:00 17,9 8,2 22,5 20,8 14 7 24 13 NNW 1019,2 22 60 0,0
29.05.2020 09:00:00 16,3 8,0 18,4 20,9 14 8 21 12 NNW 1019,7 26 60 0,0
29.05.2020 08:00:00 15,1 7,4 12,6 21,1 14 7 21 11 NNW 1020,1 27 60 0,0
29.05.2020 07:00:00 14,0 7,3 9,1 21,3 6 4 15 8 N 1020,3 38 15 0,0
29.05.2020 06:00:00 13,7 7,7 9,9 21,5 11 6 16 9 NNW 1020,3 46 0 0,0
29.05.2020 05:00:00 14,8 8,3 10,9 21,7 3 1 19 10 W 1020,1 39 0 0,0
29.05.2020 04:00:00 16,0 9,4 13,7 21,8 12 7 23 13 NNW 1019,9 39 0 0,0
29.05.2020 03:00:00 16,6 9,8 14,4 22,0 16 9 27 14 N 1020,3 46 0 0,0
29.05.2020 02:00:00 17,4 10,0 15,2 22,2 13 7 28 15 N 1020,4 47 0 0,0
29.05.2020 01:00:00 18,5 10,3 16,3 22,3 13 7 23 12 N 1020,7 49 0 0,0
29.05.2020 00:00:00 19,5 10,2 17,2 22,4 11 6 22 12 NNW 1020,9 54 0 0,0
28.05.2020 23:00:00 20,6 9,8 18,0 22,4 14 8 27 15 NNW 1021,0 59 0 0,0
28.05.2020 22:00:00 21,9 9,4 19,7 22,4 17 9 31 17 NNW 1021,0 60 0 0,0
28.05.2020 21:00:00 23,4 9,0 21,7 22,3 19 10 34 19 NNW 1021,0 38 21 0,0
28.05.2020 20:00:00 25,2 7,8 26,9 22,2 20 11 44 24 N 1020,9 22 60 0,0
28.05.2020 19:00:00 25,6 9,0 31,2 21,9 22 12 36 19 N 1021,0 23 60 0,0
28.05.2020 18:00:00 26,1 9,4 33,5 21,5 21 11 39 21 N 1021,5 24 60 0,0
28.05.2020 17:00:00 26,7 10,0 35,0 21,2 17 9 34 18 NNE 1021,8 25 60 0,0
28.05.2020 16:00:00 26,3 8,7 36,0 20,8 21 11 34 19 NNE 1022,7 26 60 0,0
28.05.2020 15:00:00 25,8 8,3 34,9 20,5 18 10 36 19 NNW 1023,2 23 60 0,0
28.05.2020 14:00:00 24,8 9,1 34,7 20,3 17 9 30 16 N 1024,1 21 60 0,0
28.05.2020 13:00:00 23,9 9,1 32,7 20,1 16 9 33 18 N 1024,8 20 60 0,0
28.05.2020 12:00:00 22,6 8,7 31,2 20,1 15 8 29 16 N 1025,4 22 60 0,0
28.05.2020 11:00:00 21,0 9,9 26,8 20,1 10 5 21 11 NNW 1026,2 25 60 0,0
28.05.2020 10:00:00 19,1 9,6 26,5 20,2 8 4 21 11 N 1026,8 24 60 0,0
28.05.2020 09:00:00 18,0 9,1 21,1 20,4 5 3 16 8 NNW 1027,2 35 60 0,0
28.05.2020 08:00:00 16,5 8,7 9,5 20,6 5 3 11 6 NNW 1027,6 38 60 0,0
28.05.2020 07:00:00 12,2 8,8 6,6 20,8 3 2 4 2 S 1027,9 44 17 0,0
28.05.2020 06:00:00 11,4 8,1 6,6 21,0 0 0 6 4 N 1028,0 46 0 0,0
28.05.2020 05:00:00 12,4 8,1 7,1 21,2 3 2 6 4 SSW 1027,7 54 0 0,0
28.05.2020 04:00:00 13,2 8,5 7,9 21,4 3 1 6 3 SW 1027,7 58 0 0,0
28.05.2020 03:00:00 14,6 8,1 9,3 21,5 4 2 7 4 N 1027,7 59 0 0,0
28.05.2020 02:00:00 16,6 8,0 11,1 21,7 4 2 10 6 N 1027,9 60 0 0,0
28.05.2020 01:00:00 17,5 8,1 12,2 21,8 8 5 14 8 NW 1028,1 60 0 0,0
28.05.2020 00:00:00 18,6 6,7 14,3 21,9 11 6 18 10 NNW 1028,2 60 0 0,0
27.05.2020 23:00:00 19,8 6,9 14,7 22,0 11 6 16 9 NNW 1028,2 60 0 0,0
27.05.2020 22:00:00 20,7 8,3 16,9 22,0 10 6 19 10 N 1027,8 60 0 0,0
27.05.2020 21:00:00 22,4 10,2 19,9 21,9 11 6 17 9 N 1027,4 59 16 0,0
27.05.2020 20:00:00 23,9 9,1 27,2 21,7 10 6 24 13 N 1027,2 52 60 0,0
27.05.2020 19:00:00 24,4 7,5 32,4 21,4 10 5 27 14 N 1027,3 52 60 0,0
27.05.2020 18:00:00 25,0 7,2 33,7 21,1 12 7 28 15 N 1027,5 60 60 0,0
27.05.2020 17:00:00 24,5 7,2 36,0 20,8 13 7 31 17 NE 1027,7 60 60 0,0
27.05.2020 16:00:00 24,4 8,8 33,3 20,4 9 5 26 14 NNE 1028,0 19 60 0,0
27.05.2020 15:00:00 24,1 7,7 34,9 20,1 9 5 22 12 NNW 1028,5 55 60 0,0
27.05.2020 14:00:00 23,0 8,7 33,9 19,8 7 4 18 10 NNW 1028,8 60 60 0,0
27.05.2020 13:00:00 22,2 8,7 32,6 19,6 6 3 18 10 NE 1029,3 60 60 0,0
27.05.2020 12:00:00 20,9 8,8 29,8 19,6 4 2 16 9 NNE 1029,5 52 60 0,0
27.05.2020 11:00:00 19,5 9,4 25,6 19,6 6 4 16 9 N 1029,9 55 60 0,0
27.05.2020 10:00:00 17,7 8,5 22,5 19,7 8 4 18 10 NW 1029,8 48 60 0,0
27.05.2020 09:00:00 16,2 7,7 18,4 19,9 6 3 16 9 N 1029,6 56 60 0,0
27.05.2020 08:00:00 14,7 7,5 10,7 20,1 9 5 16 9 NNW 1029,8 33 60 0,0
27.05.2020 07:00:00 12,8 7,5 6,0 20,2 9 5 13 7 NW 1029,4 22 20 0,0
27.05.2020 06:00:00 11,4 6,9 5,8 20,5 5 3 12 6 NW 1029,1 57 0 0,0

tt = Température de l'air
td = dewpoint
tt 5cm = Température de l'air 5cm
tt -20cm = Température de l'air -20cm
ff = Vitesse du vent
fx = gusts
dd = Direction du vent
ppp = reduced air pressure
vv = visibility
sd = Ensoleillement
rr = Quantités de précipitations

stations d'obs. à proximité